LOT2122 EYVI-EPWA

Flight info

Callsign LOT2122
Flight time 0h 54m
Altitude 32000
Route UPASI DCT TUNGA DCT SUWGI M857 GERVI P851 NEPOX
Aircraft B38M/M-SDE1FGHILORVWXY/HB1

Departure

Time 2026-04-30 11:40
Airport Vilnius International Airport (EYVI)

Arrival

Time 2026-04-30 12:34
Airport Warsaw Chopin Airport (EPWA)
Time Latitude Longitude Altitude Speed Heading
2026-04-30 11:16 54.64235 25.28202 639 ft 0 kts
2026-04-30 11:33 54.64208 25.28204 646 ft 4 kts
2026-04-30 11:33 54.64185 25.28207 640 ft 4 kts 340°
2026-04-30 11:33 54.64170 25.28231 640 ft 4 kts 275°
2026-04-30 11:33 54.64174 25.28274 640 ft 4 kts 248°
2026-04-30 11:34 54.64184 25.28316 648 ft 2 kts 250°
2026-04-30 11:34 54.64185 25.28320 647 ft 0 kts 251°
2026-04-30 11:36 54.64183 25.28310 649 ft 3 kts 251°
2026-04-30 11:36 54.64175 25.28249 640 ft 10 kts 257°
2026-04-30 11:36 54.64095 25.28178 641 ft 20 kts 164°
2026-04-30 11:37 54.63915 25.28244 639 ft 33 kts 168°
2026-04-30 11:37 54.63688 25.28332 630 ft 27 kts 168°
2026-04-30 11:37 54.63536 25.28359 626 ft 21 kts 200°
2026-04-30 11:37 54.63370 25.28238 617 ft 30 kts 201°
2026-04-30 11:38 54.63147 25.28082 612 ft 39 kts 202°
2026-04-30 11:38 54.62867 25.27890 617 ft 48 kts 201°
2026-04-30 11:38 54.62577 25.27689 618 ft 23 kts 202°
2026-04-30 11:38 54.62492 25.27721 610 ft 15 kts 94°
2026-04-30 11:39 54.62467 25.27819 610 ft 8 kts 153°
2026-04-30 11:39 54.62427 25.27883 613 ft 5 kts 87°
2026-04-30 11:39 54.62459 25.27918 610 ft 9 kts 20°
2026-04-30 11:39 54.62723 25.28098 601 ft 83 kts 21°
2026-04-30 11:40 54.63498 25.28635 617 ft 154 kts 22°
2026-04-30 11:40 54.64638 25.29404 981 ft 191 kts 19°
2026-04-30 11:40 54.65922 25.30287 1918 ft 204 kts 18°
2026-04-30 11:40 54.67349 25.31141 2736 ft 229 kts 15°
2026-04-30 11:41 54.68862 25.32152 3500 ft 249 kts 20°
2026-04-30 11:41 54.70466 25.33314 4639 ft 250 kts 21°
2026-04-30 11:41 54.72084 25.34467 5783 ft 252 kts 20°
2026-04-30 11:41 54.73694 25.35601 6892 ft 254 kts 21°
2026-04-30 11:42 54.75397 25.36342 7926 ft 253 kts 359°
2026-04-30 11:42 54.77111 25.35650 8911 ft 258 kts 335°
2026-04-30 11:42 54.78525 25.33700 9893 ft 266 kts 310°
2026-04-30 11:42 54.79300 25.30722 10729 ft 283 kts 285°
2026-04-30 11:43 54.79258 25.27204 11180 ft 313 kts 259°
2026-04-30 11:43 54.78222 25.23716 11633 ft 340 kts 231°
2026-04-30 11:43 54.76254 25.21281 12213 ft 358 kts 202°
2026-04-30 11:43 54.73844 25.19970 12828 ft 369 kts 200°
2026-04-30 11:44 54.71403 25.18431 13586 ft 374 kts 201°
2026-04-30 11:44 54.68958 25.16811 14304 ft 380 kts 201°
2026-04-30 11:44 54.66468 25.15127 14979 ft 385 kts 202°
2026-04-30 11:44 54.63959 25.13408 15648 ft 391 kts 202°
2026-04-30 11:45 54.61453 25.11681 16301 ft 395 kts 202°
2026-04-30 11:45 54.58907 25.09800 16923 ft 400 kts 211°
2026-04-30 11:45 54.56715 25.06871 17588 ft 398 kts 231°
2026-04-30 11:45 54.55156 25.02977 18148 ft 396 kts 250°
2026-04-30 11:46 54.54096 24.98585 18732 ft 397 kts 254°
2026-04-30 11:46 54.53088 24.94122 19272 ft 401 kts 255°
2026-04-30 11:46 54.52097 24.89620 19858 ft 404 kts 255°
2026-04-30 11:46 54.51108 24.85066 20344 ft 408 kts 255°
2026-04-30 11:47 54.50129 24.80518 20856 ft 412 kts 255°
2026-04-30 11:47 54.49133 24.75883 21384 ft 415 kts 255°
2026-04-30 11:47 54.48124 24.71190 21922 ft 419 kts 255°
2026-04-30 11:47 54.47107 24.66467 22456 ft 422 kts 255°
2026-04-30 11:48 54.46081 24.61712 22961 ft 426 kts 255°
2026-04-30 11:48 54.45043 24.56917 23455 ft 429 kts 255°
2026-04-30 11:48 54.44009 24.52151 23945 ft 433 kts 255°
2026-04-30 11:48 54.42954 24.47296 24356 ft 436 kts 255°
2026-04-30 11:49 54.41888 24.42400 24759 ft 439 kts 255°
2026-04-30 11:49 54.40808 24.37454 25157 ft 442 kts 255°
2026-04-30 11:49 54.39721 24.32486 25538 ft 446 kts 255°
2026-04-30 11:49 54.38671 24.27465 25902 ft 446 kts 260°
2026-04-30 11:50 54.37803 24.22335 26271 ft 449 kts 260°
2026-04-30 11:50 54.36910 24.17174 26642 ft 452 kts 259°
2026-04-30 11:50 54.36010 24.12064 26933 ft 457 kts 260°
2026-04-30 11:50 54.35075 24.06812 27169 ft 463 kts 260°
2026-04-30 11:51 54.34131 24.01527 27602 ft 464 kts 260°
2026-04-30 11:51 54.33178 23.96207 27901 ft 469 kts 260°
2026-04-30 11:51 54.32216 23.90857 28264 ft 471 kts 260°
2026-04-30 11:51 54.31246 23.85474 28611 ft 474 kts 260°
2026-04-30 11:52 54.30266 23.80054 28937 ft 478 kts 260°
2026-04-30 11:52 54.29277 23.74604 29272 ft 480 kts 260°
2026-04-30 11:52 54.28280 23.69120 29588 ft 483 kts 260°
2026-04-30 11:52 54.27274 23.63607 29933 ft 486 kts 261°
2026-04-30 11:53 54.26271 23.58124 30250 ft 489 kts 261°
2026-04-30 11:53 54.25245 23.52533 30431 ft 494 kts 260°
2026-04-30 11:53 54.23174 23.41291 30341 ft 496 kts 260°
2026-04-30 11:54 54.21812 23.35756 30337 ft 512 kts 247°
2026-04-30 11:54 54.20063 23.30454 30451 ft 515 kts 248°
2026-04-30 11:54 54.16710 23.19983 31477 ft 490 kts 248°
2026-04-30 11:55 54.15079 23.14938 32194 ft 481 kts 248°
2026-04-30 11:55 54.13457 23.09929 32428 ft 483 kts 247°
2026-04-30 11:55 54.10138 22.99737 32398 ft 500 kts 245°
2026-04-30 11:56 54.08065 22.94869 32358 ft 515 kts 229°
2026-04-30 11:56 54.05357 22.90928 32388 ft 524 kts 213°
2026-04-30 11:56 54.02072 22.88199 32389 ft 527 kts 195°
2026-04-30 11:56 53.98513 22.86789 32416 ft 527 kts 188°
2026-04-30 11:57 53.91333 22.84075 32410 ft 528 kts 189°
2026-04-30 11:57 53.84152 22.81354 32404 ft 528 kts 189°
2026-04-30 11:58 53.76965 22.78641 32403 ft 528 kts 189°
2026-04-30 11:58 53.69828 22.75956 32401 ft 528 kts 189°
2026-04-30 11:59 53.62647 22.73263 32402 ft 528 kts 189°
2026-04-30 11:59 53.55460 22.70578 32398 ft 527 kts 189°
2026-04-30 12:00 53.48328 22.67922 32404 ft 527 kts 189°
2026-04-30 12:00 53.41152 22.65260 32394 ft 527 kts 189°
2026-04-30 12:01 53.33977 22.62607 32400 ft 527 kts 189°
2026-04-30 12:01 53.26825 22.59970 32450 ft 524 kts 189°
2026-04-30 12:02 53.19806 22.57392 32407 ft 518 kts 189°
2026-04-30 12:02 53.12774 22.54817 32396 ft 517 kts 189°
2026-04-30 12:03 53.02242 22.50976 32391 ft 515 kts 189°
2026-04-30 12:04 52.95244 22.48435 32395 ft 515 kts 189°
2026-04-30 12:04 52.88241 22.45900 32396 ft 515 kts 189°
2026-04-30 12:05 52.81277 22.43387 32402 ft 500 kts 189°
2026-04-30 12:05 52.74590 22.40984 32388 ft 493 kts 189°
2026-04-30 12:05 52.71238 22.39782 31819 ft 493 kts 189°
2026-04-30 12:06 52.67853 22.38570 30789 ft 501 kts 189°
2026-04-30 12:06 52.64433 22.37347 29648 ft 501 kts 189°
2026-04-30 12:06 52.61029 22.36131 28578 ft 498 kts 189°
2026-04-30 12:06 52.57656 22.34929 27550 ft 494 kts 189°
2026-04-30 12:07 52.54309 22.33739 26566 ft 490 kts 189°
2026-04-30 12:07 52.50988 22.32559 25624 ft 485 kts 189°
2026-04-30 12:07 52.47701 22.31393 24727 ft 480 kts 190°
2026-04-30 12:07 52.44510 22.30263 24142 ft 468 kts 190°
2026-04-30 12:08 52.41350 22.29147 22918 ft 466 kts 190°
2026-04-30 12:08 52.38123 22.28009 21166 ft 478 kts 190°
2026-04-30 12:08 52.34872 22.26863 20430 ft 467 kts 190°
2026-04-30 12:08 52.31800 22.25777 19902 ft 451 kts 190°
2026-04-30 12:09 52.28728 22.24698 19256 ft 440 kts 190°
2026-04-30 12:09 52.25793 22.23670 18584 ft 432 kts 190°
2026-04-30 12:09 52.22877 22.22646 17797 ft 425 kts 191°
2026-04-30 12:09 52.20129 22.20982 17229 ft 414 kts 213°
2026-04-30 12:10 52.18064 22.18025 17393 ft 380 kts 234°
2026-04-30 12:10 52.16793 22.14503 17357 ft 350 kts 255°
2026-04-30 12:10 52.16258 22.10764 17318 ft 335 kts 271°
2026-04-30 12:10 52.16095 22.06912 17012 ft 346 kts 274°
2026-04-30 12:11 52.16028 22.02982 16433 ft 344 kts 275°
2026-04-30 12:11 52.16092 21.99124 15880 ft 334 kts 284°
2026-04-30 12:11 52.16439 21.95419 15359 ft 328 kts 285°
2026-04-30 12:11 52.16771 21.91813 14858 ft 324 kts 284°
2026-04-30 12:12 52.17097 21.88206 14352 ft 319 kts 284°
2026-04-30 12:12 52.17417 21.84649 13807 ft 315 kts 284°
2026-04-30 12:12 52.17732 21.81133 13253 ft 311 kts 284°
2026-04-30 12:12 52.18052 21.77666 12721 ft 307 kts 284°
2026-04-30 12:13 52.18379 21.74248 12187 ft 304 kts 284°
2026-04-30 12:13 52.18591 21.72005 11844 ft 301 kts 284°
2026-04-30 12:13 52.18995 21.67725 11163 ft 298 kts 284°
2026-04-30 12:13 52.19307 21.64407 10658 ft 295 kts 284°
2026-04-30 12:14 52.19614 21.61121 10155 ft 292 kts 284°
2026-04-30 12:14 52.19919 21.57856 9592 ft 290 kts 283°
2026-04-30 12:14 52.20163 21.54594 9044 ft 290 kts 276°
2026-04-30 12:14 52.20143 21.51340 8771 ft 279 kts 274°
2026-04-30 12:15 52.20129 21.48296 8737 ft 259 kts 275°
2026-04-30 12:15 52.20127 21.45437 8663 ft 248 kts 275°
2026-04-30 12:15 52.20133 21.42583 8648 ft 262 kts 275°
2026-04-30 12:15 52.20143 21.39558 8631 ft 270 kts 275°
2026-04-30 12:16 52.20155 21.36546 8636 ft 259 kts 275°
2026-04-30 12:16 52.20167 21.33687 8576 ft 247 kts 275°
2026-04-30 12:16 52.20080 21.30955 8485 ft 240 kts 259°
2026-04-30 12:16 52.19484 21.28475 8432 ft 228 kts 251°
2026-04-30 12:17 52.18256 21.23942 8368 ft 222 kts 251°
2026-04-30 12:17 52.17616 21.21609 8415 ft 227 kts 250°
2026-04-30 12:17 52.16969 21.19271 8448 ft 229 kts 250°
2026-04-30 12:18 52.16276 21.17134 8407 ft 214 kts 234°
2026-04-30 12:18 52.15167 21.15810 8348 ft 185 kts 201°
2026-04-30 12:18 52.14003 21.15528 8237 ft 157 kts 172°
2026-04-30 12:18 52.13311 21.15740 8101 ft 151 kts 159°
2026-04-30 12:19 52.12306 21.16328 8173 ft 157 kts 153°
2026-04-30 12:19 52.11260 21.17043 8274 ft 167 kts 152°
2026-04-30 12:19 52.10179 21.17843 8303 ft 173 kts 150°
2026-04-30 12:19 52.09093 21.18690 8291 ft 174 kts 149°
2026-04-30 12:20 52.08013 21.19571 8243 ft 173 kts 148°
2026-04-30 12:20 52.06940 21.20462 8194 ft 173 kts 148°
2026-04-30 12:20 52.05868 21.21366 8143 ft 173 kts 147°
2026-04-30 12:20 52.04817 21.22261 8111 ft 172 kts 147°
2026-04-30 12:21 52.03757 21.23172 8057 ft 172 kts 147°
2026-04-30 12:21 52.02699 21.24085 8004 ft 172 kts 147°
2026-04-30 12:21 52.01645 21.24997 7961 ft 172 kts 147°
2026-04-30 12:21 52.00592 21.25908 7920 ft 171 kts 147°
2026-04-30 12:22 51.99539 21.26813 7871 ft 171 kts 147°
2026-04-30 12:22 51.98484 21.27720 7826 ft 171 kts 147°
2026-04-30 12:22 51.97432 21.28627 7785 ft 171 kts 147°
2026-04-30 12:22 51.96382 21.29532 7737 ft 171 kts 147°
2026-04-30 12:23 51.95331 21.30435 7689 ft 171 kts 147°
2026-04-30 12:23 51.94284 21.31341 7646 ft 170 kts 147°
2026-04-30 12:23 51.93237 21.32237 7597 ft 170 kts 148°
2026-04-30 12:23 51.92201 21.33125 7557 ft 170 kts 147°
2026-04-30 12:24 51.91158 21.34023 7503 ft 170 kts 147°
2026-04-30 12:24 51.90006 21.34459 7336 ft 174 kts 185°
2026-04-30 12:24 51.88907 21.33736 7205 ft 171 kts 223°
2026-04-30 12:24 51.88170 21.32264 7144 ft 168 kts 243°
2026-04-30 12:25 51.87576 21.30628 7124 ft 168 kts 245°
2026-04-30 12:25 51.86992 21.28959 7012 ft 176 kts 246°
2026-04-30 12:25 51.86377 21.27157 6698 ft 188 kts 248°
2026-04-30 12:25 51.86125 21.25128 6282 ft 184 kts 285°
2026-04-30 12:26 51.86621 21.23388 5909 ft 174 kts 317°
2026-04-30 12:26 51.87551 21.22269 5589 ft 162 kts 333°
2026-04-30 12:26 51.88506 21.21320 5476 ft 161 kts 332°
2026-04-30 12:26 51.89470 21.20392 5248 ft 161 kts 333°
2026-04-30 12:27 51.90441 21.19501 5026 ft 160 kts 334°
2026-04-30 12:27 51.91413 21.18633 4798 ft 159 kts 334°
2026-04-30 12:27 51.92385 21.17781 4546 ft 159 kts 334°
2026-04-30 12:27 51.93353 21.16935 4376 ft 155 kts 334°
2026-04-30 12:28 51.94277 21.16129 4304 ft 148 kts 334°
2026-04-30 12:28 51.95169 21.15357 4180 ft 147 kts 334°
2026-04-30 12:28 51.96070 21.14576 4118 ft 147 kts 334°
2026-04-30 12:28 51.96971 21.13794 4014 ft 146 kts 334°
2026-04-30 12:29 51.97870 21.13017 3931 ft 147 kts 333°
2026-04-30 12:29 51.98776 21.12229 3838 ft 147 kts 333°
2026-04-30 12:29 51.99675 21.11443 3738 ft 147 kts 333°
2026-04-30 12:29 52.00573 21.10661 3670 ft 146 kts 333°
2026-04-30 12:30 52.01474 21.09880 3461 ft 146 kts 333°
2026-04-30 12:30 52.02365 21.09108 3297 ft 145 kts 333°
2026-04-30 12:30 52.03247 21.08347 3157 ft 143 kts 332°
2026-04-30 12:30 52.04112 21.07592 2970 ft 143 kts 333°
2026-04-30 12:31 52.04991 21.06824 2791 ft 144 kts 333°
2026-04-30 12:31 52.05866 21.06060 2617 ft 143 kts 333°
2026-04-30 12:31 52.06741 21.05301 2434 ft 144 kts 334°
2026-04-30 12:31 52.07626 21.04526 2238 ft 145 kts 333°
2026-04-30 12:32 52.08510 21.03754 2050 ft 142 kts 333°
2026-04-30 12:32 52.09379 21.03001 1803 ft 140 kts 333°
2026-04-30 12:32 52.10226 21.02267 1603 ft 141 kts 333°
2026-04-30 12:32 52.11083 21.01518 1441 ft 138 kts 333°
2026-04-30 12:33 52.11929 21.00780 1191 ft 138 kts 332°
2026-04-30 12:33 52.12777 21.00039 1029 ft 138 kts 330°
2026-04-30 12:33 52.13630 20.99295 816 ft 141 kts 329°
2026-04-30 12:33 52.14505 20.98518 636 ft 144 kts 328°
2026-04-30 12:34 52.15392 20.97751 436 ft 145 kts 327°
2026-04-30 12:34 52.16180 20.97056 355 ft 80 kts 332°
2026-04-30 12:34 52.16517 20.96755 357 ft 89 kts 330°
2026-04-30 12:34 52.17004 20.96333 353 ft 49 kts 336°
2026-04-30 12:35 52.17299 20.96247 359 ft 24 kts
2026-04-30 12:35 52.17416 20.96353 356 ft 22 kts 61°
2026-04-30 12:35 52.17425 20.96392 358 ft 0 kts 103°
2026-04-30 12:35 52.17418 20.96397 357 ft 2 kts 165°
2026-04-30 12:36 52.17374 20.96411 354 ft 10 kts 154°
2026-04-30 12:36 52.17302 20.96475 354 ft 13 kts 148°
2026-04-30 12:36 52.17213 20.96555 354 ft 18 kts 151°
2026-04-30 12:36 52.17130 20.96676 357 ft 17 kts 89°
2026-04-30 12:37 52.17166 20.96823 359 ft 8 kts 76°
2026-04-30 12:37 52.17197 20.96924 356 ft 12 kts 59°
2026-04-30 12:37 52.17205 20.96948 362 ft 0 kts 63°